DW7572 Weather Reports


time (UTC)temp
C
wind
direction
speed
KPH
gust
KPH
rain 1hr
cm
rain 24hr
cm
rain mn
cm
humidity
%
barometer
mb
20260831001521 27 158 16.1 25.7 0.00 0.00 0.00 80 1007.9
20260831000517 27 180 16.1 24.1 0.00 0.00 0.00 80 1008.1
20260830235517 27 158 9.7 16.1 0.00 0.00 0.00 83 1007.6
20260830234517 27 158 11.3 16.1 0.00 0.00 0.00 83 1007.7
20260830233516 27 158 12.9 19.3 0.00 0.00 0.00 82 1007.6
20260830232516 27 158 9.7 16.1 0.00 0.00 0.00 82 1007.4
20260830231517 28 158 11.3 25.7 0.00 0.00 0.00 81 1007.5
20260830230517 28 158 12.9 20.9 0.00 0.00 0.00 79 1007.5
20260830225517 28 158 12.9 20.9 0.00 0.00 0.00 78 1007.4
20260830224516 29 158 14.5 24.1 0.00 0.00 0.00 77 1007.3
20260830223516 28 158 14.5 24.1 0.00 0.00 0.00 78 1007.3
20260830222516 28 158 14.5 20.9 0.00 0.00 0.00 78 1007.4
20260830221537 28 158 12.9 20.9 0.00 0.00 0.00 77 1007.5
20260830220516 29 158 12.9 22.5 0.00 0.00 0.00 76 1007.3
20260830215536 30 158 16.1 24.1 0.00 0.00 0.00 72 1007.2
20260830214517 30 158 17.7 27.4 0.00 0.00 0.00 71 1007.4
20260830213536 30 180 17.7 32.2 0.00 0.00 0.00 71 1007.5
20260830212536 30 158 19.3 29.0 0.00 0.00 0.00 71 1007.7
20260830211517 31 158 19.3 30.6 0.00 0.00 0.00 71 1007.7
20260830210516 31 158 14.5 22.5 0.00 0.00 0.00 70 1007.6
20260830205516 31 158 16.1 24.1 0.00 0.00 0.00 70 1007.7
20260830204556 31 158 12.9 20.9 0.00 0.00 0.00 68 1007.7
20260830203537 31 158 14.5 19.3 0.00 0.00 0.00 66 1007.9
20260830202516 31 180 14.5 24.1 0.00 0.00 0.00 68 1007.7
20260830201516 31 158 11.3 17.7 0.00 0.00 0.00 68 1007.7
20260830200516 31 158 16.1 24.1 0.00 0.00 0.00 67 1007.8
20260830195517 31 135 12.9 20.9 0.00 0.00 0.00 68 1007.8
20260830194517 31 135 9.7 17.7 0.00 0.00 0.00 72 1007.9
20260830193516 31 158 12.9 20.9 0.00 0.00 0.00 72 1008.1
20260830192516 31 135 11.3 17.7 0.00 0.00 0.00 74 1008.1
20260830191516 30 158 12.9 20.9 0.00 0.00 0.00 73 1007.9
20260830190517 30 135 11.3 17.7 0.00 0.00 0.00 73 1007.9
20260830185516 30 135 11.3 19.3 0.00 0.00 0.00 72 1008.0
20260830184516 30 135 12.9 17.7 0.00 0.00 0.00 73 1008.2
20260830183515 30 135 6.4 14.5 0.00 0.00 0.00 75 1008.2
20260830182516 30 158 11.3 16.1 0.00 0.00 0.00 74 1008.3
20260830181515 30 135 8.0 14.5 0.00 0.00 0.00 74 1008.4
20260830180536 29 113 8.0 16.1 0.00 0.00 0.00 77 1008.5
20260830175536 29 135 8.0 14.5 0.00 0.00 0.00 76 1008.5
20260830174516 29 135 6.4 16.1 0.00 0.00 0.00 76 1008.4
20260830173515 29 135 6.4 12.9 0.00 0.00 0.00 79 1008.6
20260830172516 28 135 9.7 17.7 0.00 0.00 0.00 77 1008.9
20260830171515 28 68 8.0 14.5 0.00 0.00 0.00 79 1008.6
20260830170516 28 135 9.7 16.1 0.00 0.00 0.00 79 1009.1
20260830165515 28 135 11.3 19.3 0.00 0.00 0.00 81 1009.3
20260830164516 28 158 12.9 19.3 0.00 0.00 0.00 80 1009.1
20260830163515 28 113 11.3 17.7 0.00 0.00 0.00 81 1009.3
20260830162516 27 113 8.0 14.5 0.00 0.00 0.00 83 1009.5
20260830161518 27 113 8.0 14.5 0.00 0.00 0.00 83 1009.2
20260830160517 26 90 6.4 14.5 0.00 0.00 0.00 85 1008.9
20260830155523 26 90 4.8 11.3 0.00 0.00 0.00 86 1008.9
20260830154537 26 113 4.8 9.7 0.00 0.00 0.00 86 1008.8
20260830153517 26 135 6.4 12.9 0.00 0.00 0.00 86 1008.7
20260830152518 25 158 4.8 6.4 0.00 0.00 0.00 87 1008.7
20260830151517 25 135 4.8 8.0 0.00 0.00 0.00 88 1008.6
20260830150518 25 135 6.4 12.9 0.00 0.00 0.00 88 1008.8
20260830145517 24 113 6.4 11.3 0.00 0.00 0.00 89 1008.5
20260830144517 24 113 8.0 14.5 0.00 0.00 0.00 90 1008.6
20260830143518 23 135 9.7 16.1 0.00 0.00 0.00 92 1008.6
20260830142517 23 113 4.8 11.3 0.00 0.00 0.00 95 1008.5
20260830141517 22 113 8.0 12.9 0.00 0.00 0.00 95 1008.4
20260830140538 22 90 6.4 12.9 0.00 0.00 0.00 96 1008.4
20260830135518 22 68 8.0 12.9 0.00 0.00 0.00 97 1008.3
20260830134517 22 68 6.4 12.9 0.00 0.00 0.00 98 1008.4
20260830133518 21 90 4.8 11.3 0.00 0.00 0.00 98 1008.4
20260830132518 21 113 4.8 11.3 0.00 0.00 0.00 98 1008.5
20260830131517 21 90 4.8 11.3 0.00 0.00 0.00 99 1008.5
20260830130517 20 68 6.4 11.3 0.00 0.00 0.00 99 1008.4
20260830125518 20 68 6.4 11.3 0.00 0.00 0.00 99 1008.7
20260830124518 20 113 4.8 6.4 0.00 0.00 0.00 99 1008.5
20260830123517 20 0.0 0.0 0.00 0.00 0.00 99 1008.6
20260830122517 20 113 1.6 4.8 0.00 0.00 0.00 99 1008.4
20260830121517 20 0.0 1.6 0.00 0.00 0.00 99 1008.6
20260830120517 20 0.0 0.0 0.00 0.00 0.00 99 1008.7
20260830115518 20 0.0 0.0 0.00 0.00 0.00 99 1008.5
20260830114517 19 113 3.2 6.4 0.00 0.00 0.00 99 1008.1
20260830113517 19 113 1.6 3.2 0.00 0.00 0.00 99 1008.2
20260830112517 19 113 1.6 4.8 0.00 0.00 0.00 99 1008.2
20260830111537 19 113 3.2 4.8 0.00 0.00 0.00 99 1008.3
20260830110517 19 113 3.2 4.8 0.00 0.00 0.00 99 1008.4
20260830105516 19 113 1.6 3.2 0.00 0.00 0.00 98 1008.5
20260830104537 19 0.0 0.0 0.00 0.00 0.00 98 1008.7
20260830103517 19 113 1.6 3.2 0.00 0.00 0.00 99 1008.5
20260830102517 19 113 1.6 4.8 0.00 0.00 0.00 99 1008.2
20260830101517 20 113 1.6 6.4 0.00 0.03 0.00 98 1008.7
20260830100516 20 113 1.6 6.4 0.00 0.05 0.00 98 1008.8
20260830095517 20 113 4.8 6.4 0.00 0.13 0.00 98 1008.8
20260830094517 20 135 3.2 4.8 0.00 0.23 0.00 98 1008.9
20260830093516 20 135 3.2 4.8 0.00 0.36 0.00 98 1009.2
20260830092536 20 135 3.2 6.4 0.00 0.46 0.00 99 1009.0
20260830091516 20 135 3.2 6.4 0.00 0.48 0.00 98 1008.8
20260830090517 19 135 1.6 3.2 0.00 0.51 0.00 98 1008.8
20260830085516 20 135 1.6 3.2 0.00 0.51 0.00 98 1008.7
20260830084516 20 135 3.2 4.8 0.00 0.51 0.00 98 1008.6
20260830083516 20 135 3.2 3.2 0.00 0.53 0.00 98 1008.7
20260830082517 20 135 3.2 4.8 0.00 0.56 0.00 98 1008.7
20260830081517 20 135 3.2 4.8 0.00 0.58 0.00 98 1008.6
20260830080516 20 135 1.6 3.2 0.00 0.61 0.00 98 1008.9
20260830075516 20 135 1.6 4.8 0.00 0.61 0.00 98 1009.0
20260830074516 20 135 3.2 8.0 0.00 0.66 0.00 98 1009.0
20260830073516 20 135 3.2 6.4 0.00 0.66 0.00 98 1009.0
20260830072517 20 135 3.2 4.8 0.00 0.71 0.00 98 1009.1
20260830071516 20 135 3.2 4.8 0.00 0.81 0.00 98 1009.0
20260830070516 20 135 3.2 4.8 0.00 0.99 0.00 98 1009.3
20260830065516 20 135 3.2 6.4 0.00 1.12 0.00 98 1009.4
20260830064516 20 135 3.2 6.4 0.00 1.22 0.00 98 1009.2
20260830063516 20 135 4.8 11.3 0.00 1.30 0.00 97 1009.3
20260830062536 20 135 4.8 8.0 0.00 1.30 0.00 97 1009.2
20260830061537 20 135 4.8 11.3 0.00 1.30 0.00 97 1009.2
20260830060516 20 135 6.4 11.3 0.00 1.30 0.00 97 1009.3
20260830055516 20 135 6.4 11.3 0.00 1.30 0.00 97 1009.3
20260830054556 20 135 4.8 11.3 0.00 1.30 0.00 97 1009.6
20260830053517 20 135 4.8 11.3 0.00 1.30 0.00 97 1009.8
20260830052516 20 135 4.8 11.3 0.00 1.30 0.00 97 1009.9
20260830051516 20 135 6.4 12.9 0.00 1.30 0.00 96 1009.9
20260830050516 21 135 8.0 14.5 0.00 1.30 0.00 96 1009.8
20260830045518 21 135 6.4 14.5 0.00 1.30 1.30 96 1009.8
20260830044517 21 135 8.0 12.9 0.00 1.30 1.30 96 1009.7
20260830043517 21 135 6.4 11.3 0.00 1.30 1.30 96 1009.8
20260830042537 21 135 6.4 11.3 0.00 1.30 1.30 96 1009.9
20260830041537 21 135 6.4 14.5 0.00 1.30 1.30 96 1009.9
20260830040517 21 135 6.4 14.5 0.00 1.30 1.30 95 1010.0
20260830035517 21 135 6.4 14.5 0.00 1.30 1.30 95 1009.7
20260830034517 21 135 8.0 14.5 0.00 1.30 1.30 95 1009.7
20260830033538 21 113 6.4 11.3 0.00 1.30 1.30 95 1009.8
20260830032517 21 135 8.0 12.9 0.00 1.30 1.30 95 1009.8
20260830031517 22 135 6.4 11.3 0.00 1.30 1.30 94 1009.8
20260830030517 22 135 6.4 11.3 0.00 1.30 1.30 94 1009.9
20260830025517 22 135 4.8 9.7 0.00 1.30 1.30 93 1010.0
20260830024517 22 113 6.4 12.9 0.00 1.30 1.30 93 1009.8
20260830023516 22 135 9.7 14.5 0.00 1.30 1.30 93 1009.6
20260830022537 22 135 8.0 14.5 0.00 1.30 1.30 93 1009.3
20260830021536 22 113 9.7 14.5 0.00 1.30 1.30 93 1009.2
20260830020517 22 113 8.0 14.5 0.00 1.30 1.30 92 1009.3
20260830015557 22 90 8.0 14.5 0.00 1.30 1.30 92 1009.2
20260830014517 22 90 6.4 11.3 0.00 1.30 1.30 93 1009.1
20260830013617 22 90 4.8 9.7 0.00 1.30 1.30 93 1009.1
20260830012516 22 90 4.8 6.4 0.00 1.30 1.30 93 1009.0
20260830011517 22 90 3.2 6.4 0.00 1.30 1.30 92 1009.1
20260830010516 22 90 3.2 4.8 0.00 1.30 1.30 91 1009.0
20260830005516 23 90 4.8 8.0 0.00 1.30 1.30 90 1008.8
20260830004516 23 90 4.8 11.3 0.00 1.30 1.30 88 1008.7
20260830003517 24 90 6.4 12.9 0.00 1.30 1.30 87 1008.7
20260830002537 24 90 4.8 9.7 0.00 1.30 1.30 87 1008.7